• En Colombia
  • Lista de países
  • Para 7 días
  • Temperatura del agua
  • El tiempo en el mapa
  • Informadores
  • user-avatar
    Iniciar sesión

    Tiempo cada hora Elbasan

    Hoy, 23 Febrero, Domingo

    Tiempo Temperatura Precipitaciones Viento Presión Humedad
    00:00 +5°C° 0 mm 1 mps 744 mmHg 60%
    01:00 +5°C° 0 mm 1 mps 744 mmHg 60%
    02:00 +5°C° 0 mm 1 mps 744 mmHg 59%
    03:00 +5°C° 0 mm 1 mps 743 mmHg 58%
    04:00 +5°C° 0 mm 1 mps 743 mmHg 56%
    05:00 +5°C° 0 mm 1 mps 743 mmHg 55%
    06:00 +5°C° 0 mm 1 mps 742 mmHg 54%
    07:00 +6°C° 0 mm 1 mps 743 mmHg 53%
    08:00 +8°C° 0 mm 1 mps 743 mmHg 47%
    09:00 +10°C° 0 mm 1 mps 742 mmHg 42%
    10:00 +12°C° 0 mm 1 mps 742 mmHg 36%
    11:00 +13°C° 0 mm 1 mps 742 mmHg 37%
    12:00 +13°C° 0 mm 1 mps 742 mmHg 37%
    13:00 +14°C° 0 mm 1 mps 741 mmHg 38%
    14:00 +14°C° 0 mm 1 mps 741 mmHg 43%
    15:00 +13°C° 0 mm 1 mps 740 mmHg 49%
    16:00 +13°C° 0 mm 1 mps 740 mmHg 54%
    17:00 +12°C° 0 mm 1 mps 740 mmHg 58%
    18:00 +10°C° 0 mm 1 mps 740 mmHg 61%
    19:00 +8°C° 0 mm 0 mps 740 mmHg 65%
    20:00 +8°C° 0 mm 0 mps 740 mmHg 63%
    21:00 +8°C° 0 mm 0 mps 740 mmHg 62%
    22:00 +8°C° 0 mm 0 mps 740 mmHg 60%
    23:00 +8°C° 0 mm 0 mps 739 mmHg 59%

    Mañana, 24 Febrero, Lunes

    Tiempo Temperatura Precipitaciones Viento Presión Humedad
    00:00 +9°C° 0 mm 1 mps 739 mmHg 57%
    01:00 +8°C° 0 mm 1 mps 739 mmHg 55%
    02:00 +8°C° 0 mm 1 mps 738 mmHg 55%
    03:00 +8°C° 0 mm 1 mps 738 mmHg 55%
    04:00 +8°C° 0 mm 1 mps 737 mmHg 54%
    05:00 +8°C° 0 mm 1 mps 737 mmHg 55%
    06:00 +8°C° 0 mm 1 mps 737 mmHg 55%
    07:00 +8°C° 0 mm 1 mps 737 mmHg 56%
    08:00 +10°C° 0 mm 1 mps 737 mmHg 53%
    09:00 +12°C° 0 mm 1 mps 737 mmHg 51%
    10:00 +14°C° 0 mm 1 mps 737 mmHg 48%
    11:00 +14°C° 0 mm 2 mps 737 mmHg 48%
    12:00 +15°C° 0 mm 2 mps 737 mmHg 49%
    13:00 +16°C° 0 mm 2 mps 737 mmHg 49%
    14:00 +16°C° 0 mm 1 mps 737 mmHg 52%
    15:00 +15°C° 0 mm 1 mps 737 mmHg 55%
    16:00 +15°C° 0 mm 1 mps 737 mmHg 57%
    17:00 +14°C° 0 mm 1 mps 737 mmHg 63%
    18:00 +13°C° 0 mm 1 mps 737 mmHg 68%
    19:00 +11°C° 0 mm 1 mps 738 mmHg 73%
    20:00 +11°C° 0 mm 1 mps 738 mmHg 72%
    21:00 +10°C° 0 mm 2 mps 738 mmHg 72%
    22:00 +10°C° 0 mm 2 mps 738 mmHg 71%
    23:00 +10°C° 0 mm 2 mps 738 mmHg 70%

    Pasado mañana, 25 Febrero, Martes

    Tiempo Temperatura Precipitaciones Viento Presión Humedad
    00:00 +10°C° 0 mm 2 mps 738 mmHg 69%
    01:00 +9°C° 0 mm 2 mps 737 mmHg 68%
    02:00 +9°C° 0 mm 2 mps 737 mmHg 68%
    03:00 +9°C° 0 mm 2 mps 737 mmHg 68%
    04:00 +9°C° 0 mm 2 mps 736 mmHg 67%
    05:00 +10°C° 0 mm 1 mps 736 mmHg 66%
    06:00 +10°C° 0 mm 1 mps 736 mmHg 64%
    07:00 +10°C° 0 mm 1 mps 736 mmHg 63%
    08:00 +13°C° 0 mm 1 mps 736 mmHg 58%
    09:00 +15°C° 0 mm 1 mps 736 mmHg 52%
    10:00 +18°C° 0 mm 1 mps 736 mmHg 47%
    11:00 +18°C° 0 mm 1 mps 735 mmHg 48%
    12:00 +18°C° 0 mm 2 mps 735 mmHg 50%
    13:00 +18°C° 0 mm 2 mps 735 mmHg 52%
    14:00 +18°C° 0 mm 2 mps 734 mmHg 55%
    15:00 +17°C° 0 mm 2 mps 734 mmHg 59%
    16:00 +17°C° 0 mm 2 mps 733 mmHg 63%
    17:00 +15°C° 0 mm 2 mps 733 mmHg 70%
    18:00 +14°C° 0 mm 1 mps 733 mmHg 77%
    19:00 +12°C° 0 mm 1 mps 733 mmHg 83%
    20:00 +12°C° 0 mm 1 mps 733 mmHg 84%
    21:00 +11°C° 0 mm 1 mps 733 mmHg 85%
    22:00 +11°C° 0 mm 1 mps 732 mmHg 86%
    23:00 +11°C° 0 mm 1 mps 732 mmHg 85%

    26 Febrero, Miércoles

    Tiempo Temperatura Precipitaciones Viento Presión Humedad
    00:00 +10°C° 0 mm 1 mps 732 mmHg 84%
    01:00 +10°C° 0 mm 1 mps 731 mmHg 84%
    02:00 +10°C° 0 mm 1 mps 731 mmHg 83%
    03:00 +8°C° 0 mm 2 mps 730 mmHg 83%
    04:00 +8°C° 0 mm 2 mps 730 mmHg 82%
    05:00 +8°C° 0 mm 2 mps 730 mmHg 82%
    06:00 +8°C° 0 mm 2 mps 729 mmHg 81%
    07:00 +8°C° 0 mm 2 mps 729 mmHg 81%
    08:00 +10°C° 0 mm 2 mps 729 mmHg 74%
    09:00 +12°C° 0 mm 3 mps 729 mmHg 67%
    10:00 +14°C° 0 mm 3 mps 729 mmHg 60%
    11:00 +15°C° 0 mm 4 mps 728 mmHg 60%
    12:00 +15°C° 0 mm 5 mps 728 mmHg 59%
    13:00 +15°C° 0 mm 6 mps 727 mmHg 59%
    14:00 +15°C° 0.2 mm 6 mps 727 mmHg 62%
    15:00 +14°C° 0.2 mm 5 mps 726 mmHg 65%
    16:00 +13°C° 0.2 mm 5 mps 725 mmHg 68%
    17:00 +12°C° 0.2 mm 4 mps 726 mmHg 73%
    18:00 +11°C° 0.2 mm 3 mps 726 mmHg 78%
    19:00 +10°C° 0.2 mm 2 mps 726 mmHg 84%
    20:00 +10°C° 0.4 mm 3 mps 726 mmHg 86%
    21:00 +9°C° 0.4 mm 3 mps 726 mmHg 89%
    22:00 +9°C° 0.4 mm 3 mps 726 mmHg 92%
    23:00 +8°C° 0.5 mm 4 mps 726 mmHg 88%

    27 Febrero, Jueves

    Tiempo Temperatura Precipitaciones Viento Presión Humedad
    00:00 +7°C° 0.5 mm 4 mps 726 mmHg 84%
    01:00 +7°C° 0.5 mm 5 mps 725 mmHg 81%
    02:00 +7°C° 1.2 mm 5 mps 725 mmHg 84%
    03:00 +5°C° 1.2 mm 6 mps 724 mmHg 87%
    04:00 +5°C° 1.2 mm 6 mps 724 mmHg 90%
    05:00 +5°C° 3.2 mm 5 mps 724 mmHg 91%
    06:00 +4°C° 3.2 mm 4 mps 724 mmHg 91%
    07:00 +3°C° 3.2 mm 4 mps 724 mmHg 92%
    08:00 +4°C° 1.1 mm 4 mps 724 mmHg 91%
    09:00 +3°C° 1.1 mm 5 mps 725 mmHg 89%
    10:00 +3°C° 1.1 mm 5 mps 725 mmHg 88%
    11:00 +5°C° 2.4 mm 5 mps 726 mmHg 89%
    12:00 +5°C° 2.4 mm 5 mps 726 mmHg 90%
    13:00 +5°C° 2.4 mm 4 mps 727 mmHg 91%
    14:00 +5°C° 1.1 mm 4 mps 727 mmHg 91%
    15:00 +4°C° 1.1 mm 4 mps 728 mmHg 92%
    16:00 +4°C° 1.1 mm 4 mps 729 mmHg 92%
    17:00 +4°C° 0.3 mm 3 mps 730 mmHg 91%
    18:00 +4°C° 0.3 mm 2 mps 731 mmHg 90%
    19:00 +4°C° 0.3 mm 1 mps 732 mmHg 89%
    20:00 +4°C° 0 mm 1 mps 733 mmHg 87%
    21:00 +3°C° 0 mm 1 mps 734 mmHg 86%
    22:00 +3°C° 0 mm 1 mps 735 mmHg 85%
    23:00 +2°C° 0 mm 1 mps 735 mmHg 83%

    28 Febrero, Viernes

    Tiempo Temperatura Precipitaciones Viento Presión Humedad
    00:00 +2°C° 0 mm 1 mps 735 mmHg 81%
    01:00 +2°C° 0 mm 1 mps 735 mmHg 80%
    02:00 +2°C° 0 mm 1 mps 735 mmHg 78%
    03:00 +2°C° 0 mm 1 mps 735 mmHg 77%
    04:00 +2°C° 0 mm 1 mps 735 mmHg 75%
    05:00 +2°C° 0 mm 1 mps 735 mmHg 75%
    06:00 +2°C° 0 mm 2 mps 735 mmHg 75%
    07:00 +2°C° 0 mm 2 mps 735 mmHg 75%
    08:00 +4°C° 0 mm 2 mps 736 mmHg 74%
    09:00 +6°C° 0 mm 2 mps 736 mmHg 72%
    10:00 +7°C° 0 mm 2 mps 736 mmHg 70%
    11:00 +7°C° 0 mm 2 mps 736 mmHg 73%
    12:00 +8°C° 0 mm 2 mps 736 mmHg 75%
    13:00 +8°C° 0 mm 2 mps 736 mmHg 77%
    14:00 +9°C° 0 mm 1 mps 736 mmHg 78%
    15:00 +9°C° 0 mm 1 mps 736 mmHg 79%
    16:00 +9°C° 0 mm 1 mps 736 mmHg 80%
    17:00 +8°C° 0 mm 1 mps 736 mmHg 82%
    18:00 +8°C° 0 mm 1 mps 736 mmHg 83%
    19:00 +6°C° 0 mm 2 mps 737 mmHg 85%
    20:00 +6°C° 0 mm 2 mps 737 mmHg 84%
    21:00 +5°C° 0 mm 2 mps 737 mmHg 83%
    22:00 +5°C° 0 mm 2 mps 737 mmHg 83%
    23:00 +6°C° 0 mm 2 mps 737 mmHg 82%
    Mostrar más